Terminal Aerodrome Forecast
Issued by NWS

Home | Current Version | Previous Version | Text Only | Print | Product List | Glossary On
Versions: 1 2 3 4 5 6 7 8 9 10 11 12 13 14 15 16 17 18 19 20 21 22 23 24 25 26 27 28 29 30 31 32 33 34 35 36 37 38 39 40 41 42 43 44 45 46 47 48 49 50
000
FTUS41 KCTP 020532
TAFLNS
TAF
KLNS 020532Z 0206/0306 23005KT 2SM BR OVC004
     FM020800 34004KT 3SM BR OVC012
     FM021100 29008KT P6SM OVC030
     FM021300 31011KT P6SM OVC045
     FM021600 31014G24KT P6SM SCT050
     FM030000 31010KT P6SM SCT100=

USA.gov is the U.S. government's official web portal to all federal, state and local government web resources and services.